Location: Gradaro
(45.0833°N, 10.8833°E)
Time: 23:04:12
(UTC+00:00)

FENGYUN 1C DEB - Pass Details

Date: 23 June 2021
Orbit: 744 x 851 km, 99.4° (Epoch: 27 July)

Event Time Altitude Azimuth Distance (km) Brightness Sun altitude
Exits shadow 01:01:57 18° 250° (WSW) 1,931 ? -17.6°
Maximum altitude 01:03:11 19° 267° (W) 1,859 ? -17.5°
Drops below altitude 10° 01:06:58 10° 313° (NW) 2,418 ? -17.2°
Sets 01:09:59 0° 330° (NNW) 3,335 ? -16.9°
